TimeCST,TemperatureF,Dew PointF,Humidity,Sea Level PressureIn,VisibilityMPH,Wind Direction,Wind SpeedMPH,Gust SpeedMPH,PrecipitationIn,Events,Conditions,WindDirDegrees,DateUTC
12:41 AM,68.0,55.4,64,29.97,7.0,ESE,4.6,-,N/A,,Partly Cloudy,120,2013-02-07 06:41:00
1:45 AM,68.0,57.2,68,29.96,7.0,ESE,4.6,-,N/A,,Partly Cloudy,110,2013-02-07 07:45:00
2:41 AM,68.0,55.4,64,29.97,7.0,SE,3.5,-,N/A,,Partly Cloudy,130,2013-02-07 08:41:00
3:49 AM,68.0,55.4,64,29.94,7.0,SE,4.6,-,N/A,,Partly Cloudy,130,2013-02-07 09:49:00
4:51 AM,66.2,66.2,100,29.95,7.0,Calm,Calm,-,N/A,,Partly Cloudy,0,2013-02-07 10:51:00
5:47 AM,68.0,55.4,64,29.93,7.0,SE,4.6,-,N/A,,Partly Cloudy,140,2013-02-07 11:47:00
6:40 AM,69.8,57.2,64,29.97,8.0,SE,6.9,-,N/A,,Partly Cloudy,130,2013-02-07 12:40:00
7:43 AM,71.6,59.0,64,29.98,8.0,SE,8.1,-,N/A,,Partly Cloudy,130,2013-02-07 13:43:00
8:47 AM,77.0,59.0,54,30.02,8.0,SE,8.1,20.7,N/A,,Scattered Clouds,130,2013-02-07 14:47:00
9:41 AM,78.8,60.8,54,30.01,8.0,SE,13.8,-,N/A,,Scattered Clouds,140,2013-02-07 15:41:00
10:42 AM,80.6,59.0,48,30.01,8.0,SSE,10.4,-,N/A,,Scattered Clouds,150,2013-02-07 16:42:00
11:44 AM,82.4,59.0,45,29.97,8.0,SE,12.7,-,N/A,,Scattered Clouds,130,2013-02-07 17:44:00
12:40 PM,82.4,62.6,51,29.97,8.0,SSE,8.1,-,N/A,,Scattered Clouds,150,2013-02-07 18:40:00
1:43 PM,82.4,57.2,42,29.94,8.0,SSE,11.5,-,N/A,,Scattered Clouds,160,2013-02-07 19:43:00
2:49 PM,80.6,75.2,84,29.94,8.0,SSE,8.1,-,N/A,,Scattered Clouds,150,2013-02-07 20:49:00
3:54 PM,80.6,59.0,48,29.92,8.0,SE,11.5,-,N/A,,Scattered Clouds,130,2013-02-07 21:54:00
4:49 PM,78.8,57.2,47,29.93,8.0,SSE,8.1,-,N/A,,Scattered Clouds,160,2013-02-07 22:49:00
5:55 PM,75.2,55.4,50,29.89,8.0,SSE,4.6,-,N/A,,Partly Cloudy,150,2013-02-07 23:55:00
6:48 PM,73.4,55.4,53,29.94,8.0,SSE,3.5,-,N/A,,Partly Cloudy,150,2013-02-08 00:48:00
7:51 PM,69.8,62.6,78,29.94,7.0,Calm,Calm,-,N/A,,Partly Cloudy,0,2013-02-08 01:51:00
8:53 PM,68.0,53.6,60,29.99,7.0,Calm,Calm,-,N/A,,Partly Cloudy,0,2013-02-08 02:53:00
9:47 PM,69.8,66.2,88,29.96,7.0,Calm,Calm,-,N/A,,Partly Cloudy,0,2013-02-08 03:47:00
10:42 PM,66.2,62.6,88,29.97,7.0,Calm,Calm,-,N/A,,Partly Cloudy,0,2013-02-08 04:42:00
11:47 PM,64.4,62.6,94,29.91,7.0,Calm,Calm,-,N/A,,Partly Cloudy,0,2013-02-08 05:47:00